Location: Corona
(40.7470°N, 73.8601°W)
Time: 09:03:04
(UTC+00:00)

YAOGAN 1 - Pass Details

Date: 22 September 2019
Orbit: 619 x 621 km, 98.0° (Epoch: 17 October)

Event Time Altitude Azimuth Distance (km) Brightness Sun altitude
Rises 23:47:12 0° 180° (S) 2,882 5.9 -11.1°
Reaches altitude 10° 23:49:26 10° 187° (S) 1,981 5.1 -11.5°
Maximum altitude 23:53:35 46° 261° (W) 835 3.7 -12.2°
Drops below altitude 10° 23:57:46 10° 335° (NNW) 1,995 5.7 -13.0°
Sets 00:00:03 0° 341° (NNW) 2,905 6.5 -13.4°
